This demonstration page uses our WeatherBlox Daily Observations layout. Learn more.

Left ArrowRight Arrow

Hourly Observations for September 13, 2018

Temp ( °F °C ) Dew Point ( °F °C ) Humidity (%) Winds ( mph kmh ) Pressure ( in mb ) Visibility ( mi km ) Precip ( " mm )
12:57 am 00:57 Mostly Cloudy 68 20 65 18.3 90 90 SSE 18 30 29.88 1012 10 16 0.00 0.00
1:57 am 01:57 Cloudy 68 20 65 18.3 90 90 S 22 35 29.87 1012 10 16 0.00 0.00
2:57 am 02:57 Cloudy 69 20.6 66 18.9 90 90 S 24 39 29.86 1011 10 16 0.00 0.00
3:57 am 03:57 Cloudy 69 20.6 66 18.9 90 90 S 22 35 29.85 1011 10 16 0.00 0.00
4:57 am 04:57 Cloudy 69 20.6 66 18.9 90 90 S 24 39 29.85 1011 10 16 0.00 0.00
5:41 am 05:41 Cloudy 70 21 66 19 88 88 S 23 37 29.83 1010 10 16 0.00 0.00
5:57 am 05:57 Cloudy 69 20.6 66 18.9 90 90 S 21 33 29.84 1011 10 16 0.00 0.00
6:40 am 06:40 Cloudy 70 21 66 19 88 88 S 18 30 29.83 1010 10 16 0.00 0.00
6:57 am 06:57 Cloudy 69 20.6 66 18.9 90 90 S 17 28 29.85 1011 10 16 0.00 0.00
7:37 am 07:37 Cloudy 70 21 N/A N/A S 18 30 29.83 1010 10 16 0.00 0.00
7:57 am 07:57 Cloudy 70 21 N/A N/A S 17 28 29.87 1012 10 16 0.00 0.00
8:57 am 08:57 Cloudy 71 21.7 66 18.9 84 84 S 21 33 29.88 1012 10 16 0.00 0.00
9:57 am 09:57 Cloudy 73 22.8 67 19.4 81 81 S 26 43 29.86 1011 10 16 0.00 0.00
10:57 am 10:57 Cloudy 75 23.9 66 18.9 74 74 S 25 41 29.87 1012 10 16 0.00 0.00
12:57 pm 12:57 Mostly Cloudy 81 27.2 67 19.4 62 62 S 23 37 29.85 1011 10 16 0.00 0.00
1:17 pm 13:17 Mostly Cloudy 82 28 68 20 62 62 S 21 33 29.77 1008 10 16 0.00 0.00
1:57 pm 13:57 Mostly Cloudy 84 28.9 68 20 59 59 S 24 39 29.83 1010 10 16 0.00 0.00
2:57 pm 14:57 Mostly Cloudy 86 30 69 20.6 57 57 S 24 39 29.82 1010 10 16 0.00 0.00
3:57 pm 15:57 Sunny 87 30.6 69 20.6 55 55 S 25 41 29.80 1009 10 16 0.00 0.00
4:57 pm 16:57 Mostly Sunny 88 31.1 69 20.6 54 54 S 25 41 29.80 1009 10 16 0.00 0.00
6:57 pm 18:57 Sunny 84 28.9 69 20.6 61 61 SSE 18 30 29.82 1010 10 16 0.00 0.00
7:57 pm 19:57 Clear 80 26.7 69 20.6 69 69 SSE 14 22 29.84 1010 10 16 0.00 0.00
8:57 pm 20:57 Clear 77 25 68 20 74 74 SSE 15 24 29.86 1011 10 16 0.00 0.00
9:57 pm 21:57 Clear 75 23.9 67 19.4 76 76 SSE 15 24 29.88 1012 10 16 0.00 0.00
10:57 pm 22:57 Clear 73 22.8 67 19.4 81 81 S 14 22 29.89 1012 10 16 0.00 0.00
11:57 pm 23:57 Clear 71 21.7 67 19.4 87 87 SSE 14 22 29.90 1013 10 16 0.00 0.00

Powered by AerisWeather